Location: Caltech
(34.1382°N, 118.1253°W)
Time: 21:38:22
(UTC-08:00)

COSMOS 2428 - Visible Passes

Search period start: 17 December 2014 00:00
Search period end: 27 December 2014 00:00
Orbit: 842 x 859 km, 71.0° (Epoch: 17 December)

Date Brightness Start Highest point End Pass type
(mag) Time Alt. Az. Time Alt. Az. Time Alt. Az.
17 Dec 5.8 04:33:12 10° SE 04:35:56 14° E 04:38:40 10° ENE visible
17 Dec 2.7 06:13:50 10° SSW 06:19:30 65° WNW 06:25:12 10° NNE visible
18 Dec 5.7 04:20:53 10° SE 04:23:37 14° E 04:26:20 10° ENE visible
18 Dec 2.7 06:01:30 10° SSW 06:07:11 66° WNW 06:12:53 10° NNE visible
19 Dec 5.7 04:08:35 10° SE 04:11:18 14° E 04:14:01 10° ENE visible
19 Dec 2.7 05:49:11 10° SSW 05:54:52 66° WNW 06:00:34 10° NNE visible
20 Dec 5.6 03:56:17 10° SE 03:58:59 14° E 04:01:41 10° ENE visible
20 Dec 2.7 05:36:52 10° SSW 05:42:32 66° WNW 05:48:15 10° NNE visible
21 Dec 5.6 03:43:58 10° SE 03:46:39 14° E 03:49:21 10° ENE visible
21 Dec 2.6 05:24:33 10° SSW 05:30:13 66° WNW 05:35:56 10° NNE visible
22 Dec 5.5 03:31:40 10° SE 03:34:20 14° E 03:37:01 10° ENE visible
22 Dec 2.6 05:12:13 10° SSW 05:17:54 66° WNW 05:23:37 10° NNE visible
23 Dec 5.5 03:19:21 10° SE 03:22:01 14° E 03:24:41 10° ENE visible
23 Dec 2.6 04:59:54 10° SSW 05:05:34 66° WNW 05:11:17 10° NNE visible
24 Dec 5.4 03:10:00 13° E 03:10:00 13° E 03:12:21 10° ENE visible
24 Dec 2.6 04:52:16 56° WSW 04:53:15 66° WNW 04:58:58 10° NNE visible
25 Dec 3.3 04:42:48 42° N 04:42:48 42° N 04:46:38 10° NNE visible
26 Dec 4.3 04:32:18 23° N 04:32:18 23° N 04:34:19 10° NNE visible
